Williamsport Regional Airport
KIPT : now visible

Airfield :











YOU CAN JOIN US ON...

 
LOGIN :

Register | Disclaimer

   EN    FR    IT 

 









Legend :    VFR   Marginal VFR   IFR   Intensive IFR   Very Intensive IFR
Visi :
Ceiling :
>= 8 km
>= 3000ft
5 to 8 km
1000 to 3000 ft
1500m to 5 km
500 to 1000 ft
800 to 1500m
200 to 500 ft
< 800m
< 200 ft
Symbols :   Thunderstorms  Fog  Heavy snow  Heavy precipitations  Wind > 20 kt






- Airport Elevation : 529 ft
- IATA code : IPT


KIPT - Williamsport Regional

CURRENT METAR :
  • 021754Z 10SM BKN070 24/09 A3003 RMK AO2 SLP167 T02440089 10256 20161 58004

EXPIRED METARs :
  • 021654Z 36008KT 10SM BKN065 24/10 A3003 RMK AO2 SLP168 T02440100
  • 021554Z 27007KT 10SM FEW041 BKN055 23/13 A3004 RMK AO2 SLP170 T02280128

TAF KIPT
Valid from the 02 at 18:00 until the 03 at 18:00 UTC


021730Z 0218/0318 30010KT P6SM SCT060
FM022300 36004KT P6SM SKC
FM030600 00000KT P6SM VCFG FEW050
FM031200 00000KT P6SM BKN250
KZNY FIR / North America



MET'MAP, your aeronautical weather chart ! - Copyright ORBIFLY December 2007 - Disclaimer

ORBIFLY MET'MAP TEAM :

Programming & Development : Alexandra Zaïnal
Concept & original design : Baudouin d'Aumeries
Assistance for programming : Marc-Olivier Méhu
Technical & hardware support : Manuel Goepfert

Contact : metmap@orbifly.com




SOURCES & CREDITS :

   NOAA       Earth
Advisory